Year,Month,Day,Hour,Minute,Value (Times are PST for temperature in C)
2013,05,04,00,00,12.70
2013,05,04,00,01,12.70
2013,05,04,00,02,12.70
2013,05,04,00,03,12.70
2013,05,04,00,04,12.70
2013,05,04,00,05,12.60
2013,05,04,00,06,12.60
2013,05,04,00,07,12.60
2013,05,04,00,08,12.60
2013,05,04,00,09,12.60
2013,05,04,00,10,12.60
2013,05,04,00,11,12.60
2013,05,04,00,12,12.50
2013,05,04,00,13,12.50
2013,05,04,00,14,12.40
2013,05,04,00,15,12.30
2013,05,04,00,16,12.30
2013,05,04,00,17,12.30
2013,05,04,00,18,12.20
2013,05,04,00,19,12.20
2013,05,04,00,20,12.20
2013,05,04,00,21,12.20
2013,05,04,00,22,12.20
2013,05,04,00,23,12.20
2013,05,04,00,24,12.20
2013,05,04,00,25,12.20
2013,05,04,00,26,12.20
2013,05,04,00,27,12.20
2013,05,04,00,28,12.20
2013,05,04,00,29,12.20
2013,05,04,00,30,12.20
2013,05,04,00,31,12.10
2013,05,04,00,32,12.10
2013,05,04,00,33,12.10
2013,05,04,00,34,12.10
2013,05,04,00,35,12.00
2013,05,04,00,36,12.00
2013,05,04,00,37,12.00
2013,05,04,00,38,12.00
2013,05,04,00,39,11.90
2013,05,04,00,40,11.90
2013,05,04,00,41,11.90
2013,05,04,00,42,11.90
2013,05,04,00,43,11.80
2013,05,04,00,44,11.80
2013,05,04,00,45,11.80
2013,05,04,00,46,11.80
2013,05,04,00,47,11.80
2013,05,04,00,48,11.80
2013,05,04,00,49,11.70
2013,05,04,00,50,11.80
2013,05,04,00,51,11.70
2013,05,04,00,52,11.70
2013,05,04,00,53,11.70
2013,05,04,00,54,11.60
2013,05,04,00,55,11.60
2013,05,04,00,56,11.60
2013,05,04,00,57,11.60
2013,05,04,00,58,11.60
2013,05,04,00,59,11.60
2013,05,04,01,00,11.60
2013,05,04,01,01,11.60
2013,05,04,01,02,11.50
2013,05,04,01,03,11.50
2013,05,04,01,04,11.40
2013,05,04,01,05,11.40
2013,05,04,01,06,11.40
2013,05,04,01,07,11.40
2013,05,04,01,08,11.40
2013,05,04,01,09,11.40
2013,05,04,01,10,11.50
2013,05,04,01,11,11.50
2013,05,04,01,12,11.50
2013,05,04,01,13,11.50
2013,05,04,01,14,11.50
2013,05,04,01,15,11.50
2013,05,04,01,16,11.50
2013,05,04,01,17,11.60
2013,05,04,01,18,11.60
2013,05,04,01,19,11.60
2013,05,04,01,20,11.70
2013,05,04,01,21,11.70
2013,05,04,01,22,11.80
2013,05,04,01,23,11.80
2013,05,04,01,24,11.80
2013,05,04,01,25,11.90
2013,05,04,01,26,11.90
2013,05,04,01,27,11.90
2013,05,04,01,28,11.90
2013,05,04,01,29,11.90
2013,05,04,01,30,12.00
2013,05,04,01,31,12.00
2013,05,04,01,32,12.00
2013,05,04,01,33,12.00
2013,05,04,01,34,11.90
2013,05,04,01,35,11.90
2013,05,04,01,36,11.90
2013,05,04,01,37,11.80
2013,05,04,01,38,11.80
2013,05,04,01,39,11.70
2013,05,04,01,40,11.70
2013,05,04,01,41,11.70
2013,05,04,01,42,11.70
2013,05,04,01,43,11.70
2013,05,04,01,44,11.70
2013,05,04,01,45,11.70
2013,05,04,01,46,11.70
2013,05,04,01,47,11.70
2013,05,04,01,48,11.70
2013,05,04,01,49,11.70
2013,05,04,01,50,11.80
2013,05,04,01,51,11.80
2013,05,04,01,52,11.80
2013,05,04,01,53,11.80
2013,05,04,01,54,11.80
2013,05,04,01,55,11.80
2013,05,04,01,56,11.80
2013,05,04,01,57,11.80
2013,05,04,01,58,11.90
2013,05,04,01,59,11.80
2013,05,04,02,00,11.80
2013,05,04,02,01,11.80
2013,05,04,02,02,11.90
2013,05,04,02,03,11.90
2013,05,04,02,04,11.90
2013,05,04,02,05,11.90
2013,05,04,02,06,11.90
2013,05,04,02,07,11.90
2013,05,04,02,08,11.80
2013,05,04,02,09,11.80
2013,05,04,02,10,11.80
2013,05,04,02,11,11.80
2013,05,04,02,12,11.80
2013,05,04,02,13,11.90
2013,05,04,02,14,11.90
2013,05,04,02,15,11.90
2013,05,04,02,16,11.90
2013,05,04,02,17,11.90
2013,05,04,02,18,11.80
2013,05,04,02,19,11.80
2013,05,04,02,20,11.80
2013,05,04,02,21,11.70
2013,05,04,02,22,11.60
2013,05,04,02,23,11.60
2013,05,04,02,24,11.50
2013,05,04,02,25,11.50
2013,05,04,02,26,11.40
2013,05,04,02,27,11.40
2013,05,04,02,28,11.40
2013,05,04,02,29,11.40
2013,05,04,02,30,11.40
2013,05,04,02,31,11.40
2013,05,04,02,32,11.50
2013,05,04,02,33,11.50
2013,05,04,02,34,11.50
2013,05,04,02,35,11.60
2013,05,04,02,36,11.60
2013,05,04,02,37,11.60
2013,05,04,02,38,11.50
2013,05,04,02,39,11.50
2013,05,04,02,40,11.40
2013,05,04,02,41,11.40
2013,05,04,02,42,11.40
2013,05,04,02,43,11.40
2013,05,04,02,44,11.50
2013,05,04,02,45,11.50
2013,05,04,02,46,11.50
2013,05,04,02,47,11.60
2013,05,04,02,48,11.60
2013,05,04,02,49,11.70
2013,05,04,02,50,11.70
2013,05,04,02,51,11.80
2013,05,04,02,52,11.80
2013,05,04,02,53,11.80
2013,05,04,02,54,11.90
2013,05,04,02,55,11.90
2013,05,04,02,56,12.00
2013,05,04,02,57,12.00
2013,05,04,02,58,12.00
2013,05,04,02,59,12.00
2013,05,04,03,00,12.00
2013,05,04,03,01,12.00
2013,05,04,03,02,11.90
2013,05,04,03,03,11.90
2013,05,04,03,04,11.90
2013,05,04,03,05,11.90
2013,05,04,03,06,11.90
2013,05,04,03,07,11.90
2013,05,04,03,08,11.90
2013,05,04,03,09,12.00
2013,05,04,03,10,12.00
2013,05,04,03,11,12.00
2013,05,04,03,12,12.00
2013,05,04,03,13,12.00
2013,05,04,03,14,12.00
2013,05,04,03,15,11.90
2013,05,04,03,16,11.90
2013,05,04,03,17,11.80
2013,05,04,03,18,11.80
2013,05,04,03,19,11.70
2013,05,04,03,20,11.60
2013,05,04,03,21,11.60
2013,05,04,03,22,11.60
2013,05,04,03,23,11.50
2013,05,04,03,24,11.50
2013,05,04,03,25,11.50
2013,05,04,03,26,11.50
2013,05,04,03,27,11.50
2013,05,04,03,28,11.50
2013,05,04,03,29,11.50
2013,05,04,03,30,11.50
2013,05,04,03,31,11.50
2013,05,04,03,32,11.50
2013,05,04,03,33,11.50
2013,05,04,03,34,11.40
2013,05,04,03,35,11.40
2013,05,04,03,36,11.40
2013,05,04,03,37,11.40
2013,05,04,03,38,11.40
2013,05,04,03,39,11.40
2013,05,04,03,40,11.40
2013,05,04,03,41,11.40
2013,05,04,03,42,11.50
2013,05,04,03,43,11.50
2013,05,04,03,44,11.60
2013,05,04,03,45,11.60
2013,05,04,03,46,11.60
2013,05,04,03,47,11.50
2013,05,04,03,48,11.40
2013,05,04,03,49,11.30
2013,05,04,03,50,11.20
2013,05,04,03,51,11.10
2013,05,04,03,52,10.90
2013,05,04,03,53,10.80
2013,05,04,03,54,10.70
2013,05,04,03,55,10.70
2013,05,04,03,56,10.60
2013,05,04,03,57,10.50
2013,05,04,03,58,10.40
2013,05,04,03,59,10.40
2013,05,04,04,00,10.40
2013,05,04,04,01,10.30
2013,05,04,04,02,10.30
2013,05,04,04,03,10.30
2013,05,04,04,04,10.30
2013,05,04,04,05,10.30
2013,05,04,04,06,10.30
2013,05,04,04,07,10.30
2013,05,04,04,08,10.30
2013,05,04,04,09,10.30
2013,05,04,04,10,10.30
2013,05,04,04,11,10.30
2013,05,04,04,12,10.30
2013,05,04,04,13,10.30
2013,05,04,04,14,10.30
2013,05,04,04,15,10.20
2013,05,04,04,16,10.20
2013,05,04,04,17,10.20
2013,05,04,04,18,10.30
2013,05,04,04,19,10.30
2013,05,04,04,20,10.30
2013,05,04,04,21,10.30
2013,05,04,04,22,10.30
2013,05,04,04,23,10.30
2013,05,04,04,24,10.30
2013,05,04,04,25,10.30
2013,05,04,04,26,10.30
2013,05,04,04,27,10.40
2013,05,04,04,28,10.50
2013,05,04,04,29,10.50
2013,05,04,04,30,10.60
2013,05,04,04,31,10.70
2013,05,04,04,32,10.80
2013,05,04,04,33,10.80
2013,05,04,04,34,10.90
2013,05,04,04,35,10.90
2013,05,04,04,36,10.90
2013,05,04,04,37,10.90
2013,05,04,04,38,10.90
2013,05,04,04,39,10.90
2013,05,04,04,40,10.90
2013,05,04,04,41,11.00
2013,05,04,04,42,11.00
2013,05,04,04,43,11.00
2013,05,04,04,44,11.10
2013,05,04,04,45,11.10
2013,05,04,04,46,11.10
2013,05,04,04,47,11.10
2013,05,04,04,48,11.10
2013,05,04,04,49,11.10
2013,05,04,04,50,11.10
2013,05,04,04,51,11.10
2013,05,04,04,52,11.10
2013,05,04,04,53,11.10
2013,05,04,04,54,11.10
2013,05,04,04,55,11.10
2013,05,04,04,56,11.10
2013,05,04,04,57,11.00
2013,05,04,04,58,11.00
2013,05,04,04,59,11.10
2013,05,04,05,00,11.10
2013,05,04,05,01,11.10
2013,05,04,05,02,11.10
2013,05,04,05,03,11.20
2013,05,04,05,04,11.20
2013,05,04,05,05,11.20
2013,05,04,05,06,11.20
2013,05,04,05,07,11.20
2013,05,04,05,08,11.20
2013,05,04,05,09,11.10
2013,05,04,05,10,11.10
2013,05,04,05,11,11.10
2013,05,04,05,12,11.10
2013,05,04,05,13,11.00
2013,05,04,05,14,11.00
2013,05,04,05,15,11.00
2013,05,04,05,16,11.00
2013,05,04,05,17,11.00
2013,05,04,05,18,11.00
2013,05,04,05,19,10.90
2013,05,04,05,20,10.90
2013,05,04,05,21,10.90
2013,05,04,05,22,10.90
2013,05,04,05,23,10.80
2013,05,04,05,24,10.80
2013,05,04,05,25,10.80
2013,05,04,05,26,10.80
2013,05,04,05,27,10.80
2013,05,04,05,28,10.80
2013,05,04,05,29,10.80
2013,05,04,05,30,10.90
2013,05,04,05,31,10.90
2013,05,04,05,32,10.90
2013,05,04,05,33,10.90
2013,05,04,05,34,10.90
2013,05,04,05,35,10.90
2013,05,04,05,36,10.90
2013,05,04,05,37,10.90
2013,05,04,05,38,10.90
2013,05,04,05,39,10.90
2013,05,04,05,40,10.90
2013,05,04,05,41,10.90
2013,05,04,05,42,10.90
2013,05,04,05,43,10.90
2013,05,04,05,44,11.00
2013,05,04,05,45,11.00
2013,05,04,05,46,11.00
2013,05,04,05,47,11.10
2013,05,04,05,48,11.10
2013,05,04,05,49,11.10
2013,05,04,05,50,11.20
2013,05,04,05,51,11.20
2013,05,04,05,52,11.30
2013,05,04,05,53,11.30
2013,05,04,05,54,11.30
2013,05,04,05,55,11.30
2013,05,04,05,56,11.30
2013,05,04,05,57,11.40
2013,05,04,05,58,11.40
2013,05,04,05,59,11.40
2013,05,04,06,00,11.40
2013,05,04,06,01,11.40
2013,05,04,06,02,11.40
2013,05,04,06,03,11.40
2013,05,04,06,04,11.40
2013,05,04,06,05,11.30
2013,05,04,06,06,11.30
2013,05,04,06,07,11.30
2013,05,04,06,08,11.30
2013,05,04,06,09,11.20
2013,05,04,06,10,11.20
2013,05,04,06,11,11.20
2013,05,04,06,12,11.20
2013,05,04,06,13,11.20
2013,05,04,06,14,11.10
2013,05,04,06,15,11.10
2013,05,04,06,16,11.10
2013,05,04,06,17,11.10
2013,05,04,06,18,11.10
2013,05,04,06,19,11.00
2013,05,04,06,20,11.10
2013,05,04,06,21,11.10
2013,05,04,06,22,11.10
2013,05,04,06,23,11.00
2013,05,04,06,24,11.00
2013,05,04,06,25,11.00
2013,05,04,06,26,11.00
2013,05,04,06,27,11.10
2013,05,04,06,28,11.10
2013,05,04,06,29,11.10
2013,05,04,06,30,11.10
2013,05,04,06,31,11.10
2013,05,04,06,32,11.10
2013,05,04,06,33,11.10
2013,05,04,06,34,11.10
2013,05,04,06,35,11.20
2013,05,04,06,36,11.20
2013,05,04,06,37,11.20
2013,05,04,06,38,11.20
2013,05,04,06,39,11.20
2013,05,04,06,40,11.20
2013,05,04,06,41,11.20
2013,05,04,06,42,11.30
2013,05,04,06,43,11.30
2013,05,04,06,44,11.30
2013,05,04,06,45,11.30
2013,05,04,06,46,11.40
2013,05,04,06,47,11.40
2013,05,04,06,48,11.50
2013,05,04,06,49,11.50
2013,05,04,06,50,11.50
2013,05,04,06,51,11.60
2013,05,04,06,52,11.60
2013,05,04,06,53,11.60
2013,05,04,06,54,11.70
2013,05,04,06,55,11.70
2013,05,04,06,56,11.70
2013,05,04,06,57,11.70
2013,05,04,06,58,11.80
2013,05,04,06,59,11.80
2013,05,04,07,00,11.80
2013,05,04,07,01,11.80
2013,05,04,07,02,11.80
2013,05,04,07,03,11.80
2013,05,04,07,04,11.80
2013,05,04,07,05,11.80
2013,05,04,07,06,11.80
2013,05,04,07,07,11.80
2013,05,04,07,08,11.90
2013,05,04,07,09,11.90
2013,05,04,07,10,11.90
2013,05,04,07,11,11.90
2013,05,04,07,12,12.00
2013,05,04,07,13,12.00
2013,05,04,07,14,12.10
2013,05,04,07,15,12.10
2013,05,04,07,16,12.20
2013,05,04,07,17,12.20
2013,05,04,07,18,12.20
2013,05,04,07,19,12.20
2013,05,04,07,20,12.20
2013,05,04,07,21,12.20
2013,05,04,07,22,12.30
2013,05,04,07,23,12.30
2013,05,04,07,24,12.30
2013,05,04,07,25,12.30
2013,05,04,07,26,12.40
2013,05,04,07,27,12.40
2013,05,04,07,28,12.40
2013,05,04,07,29,12.40
2013,05,04,07,30,12.40
2013,05,04,07,31,12.40
2013,05,04,07,32,12.50
2013,05,04,07,33,12.50
2013,05,04,07,34,12.50
2013,05,04,07,35,12.60
2013,05,04,07,36,12.60
2013,05,04,07,37,12.60
2013,05,04,07,38,12.60
2013,05,04,07,39,12.70
2013,05,04,07,40,12.70
2013,05,04,07,41,12.70
2013,05,04,07,42,12.70
2013,05,04,07,43,12.80
2013,05,04,07,44,12.80
2013,05,04,07,45,12.80
2013,05,04,07,46,12.90
2013,05,04,07,47,13.00
2013,05,04,07,48,13.00
2013,05,04,07,49,13.10
2013,05,04,07,50,13.10
2013,05,04,07,51,13.10
2013,05,04,07,52,13.20
2013,05,04,07,53,13.20
2013,05,04,07,54,13.30
2013,05,04,07,55,13.30
2013,05,04,07,56,13.30
2013,05,04,07,57,13.40
2013,05,04,07,58,13.40
2013,05,04,07,59,13.40
2013,05,04,08,00,13.50
2013,05,04,08,01,13.50
2013,05,04,08,02,13.60
2013,05,04,08,03,13.60
2013,05,04,08,04,13.70
2013,05,04,08,05,13.70
2013,05,04,08,06,13.70
2013,05,04,08,07,13.80
2013,05,04,08,08,13.80
2013,05,04,08,09,13.80
2013,05,04,08,10,13.90
2013,05,04,08,11,13.90
2013,05,04,08,12,14.00
2013,05,04,08,13,14.00
2013,05,04,08,14,14.00
2013,05,04,08,15,14.10
2013,05,04,08,16,14.10
2013,05,04,08,17,14.10
2013,05,04,08,18,14.10
2013,05,04,08,19,14.20
2013,05,04,08,20,14.20
2013,05,04,08,21,14.20
2013,05,04,08,22,14.20
2013,05,04,08,23,14.20
2013,05,04,08,24,14.30
2013,05,04,08,25,14.30
2013,05,04,08,26,14.40
2013,05,04,08,27,14.50
2013,05,04,08,28,14.50
2013,05,04,08,29,14.60
2013,05,04,08,30,14.60
2013,05,04,08,31,14.70
2013,05,04,08,32,14.70
2013,05,04,08,33,14.70
2013,05,04,08,34,14.80
2013,05,04,08,35,14.80
2013,05,04,08,36,14.90
2013,05,04,08,37,14.90
2013,05,04,08,38,14.90
2013,05,04,08,39,15.00
2013,05,04,08,40,15.00
2013,05,04,08,41,15.00
2013,05,04,08,42,15.10
2013,05,04,08,43,15.10
2013,05,04,08,44,15.10
2013,05,04,08,45,15.20
2013,05,04,08,46,15.20
2013,05,04,08,47,15.20
2013,05,04,08,48,15.20
2013,05,04,08,49,15.20
2013,05,04,08,50,15.30
2013,05,04,08,51,15.30
2013,05,04,08,52,15.30
2013,05,04,08,53,15.30
2013,05,04,08,54,15.30
2013,05,04,08,55,15.40
2013,05,04,08,56,15.40
2013,05,04,08,57,15.50
2013,05,04,08,58,15.50
2013,05,04,08,59,15.50
2013,05,04,09,00,15.60
2013,05,04,09,01,15.60
2013,05,04,09,02,15.60
2013,05,04,09,03,15.70
2013,05,04,09,04,15.70
2013,05,04,09,05,15.70
2013,05,04,09,06,15.70
2013,05,04,09,07,15.80
2013,05,04,09,08,15.80
2013,05,04,09,09,15.80
2013,05,04,09,10,15.80
2013,05,04,09,11,15.90
2013,05,04,09,12,15.90
2013,05,04,09,13,15.90
2013,05,04,09,14,16.00
2013,05,04,09,15,16.00
2013,05,04,09,16,16.10
2013,05,04,09,17,16.10
2013,05,04,09,18,16.10
2013,05,04,09,19,16.10
2013,05,04,09,20,16.20
2013,05,04,09,21,16.20
2013,05,04,09,22,16.20
2013,05,04,09,23,16.20
2013,05,04,09,24,16.20
2013,05,04,09,25,16.30
2013,05,04,09,26,16.30
2013,05,04,09,27,16.30
2013,05,04,09,28,16.30
2013,05,04,09,29,16.30
2013,05,04,09,30,16.30
2013,05,04,09,31,16.40
2013,05,04,09,32,16.40
2013,05,04,09,33,16.40
2013,05,04,09,34,16.40
2013,05,04,09,35,16.40
2013,05,04,09,36,16.40
2013,05,04,09,37,16.40
2013,05,04,09,38,16.40
2013,05,04,09,39,16.40
2013,05,04,09,40,16.50
2013,05,04,09,41,16.50
2013,05,04,09,42,16.40
2013,05,04,09,43,16.40
2013,05,04,09,44,16.40
2013,05,04,09,45,16.40
2013,05,04,09,46,16.40
2013,05,04,09,47,16.50
2013,05,04,09,48,16.50
2013,05,04,09,49,16.50
2013,05,04,09,50,16.60
2013,05,04,09,51,16.60
2013,05,04,09,52,16.60
2013,05,04,09,53,16.60
2013,05,04,09,54,16.70
2013,05,04,09,55,16.70
2013,05,04,09,56,16.70
2013,05,04,09,57,16.70
2013,05,04,09,58,16.70
2013,05,04,09,59,16.70
2013,05,04,10,00,16.80
2013,05,04,10,01,16.80
2013,05,04,10,02,16.90
2013,05,04,10,03,16.90
2013,05,04,10,04,17.00
2013,05,04,10,05,17.00
2013,05,04,10,06,17.10
2013,05,04,10,07,17.10
2013,05,04,10,08,17.10
2013,05,04,10,09,17.20
2013,05,04,10,10,17.20
2013,05,04,10,11,17.20
2013,05,04,10,12,17.30
2013,05,04,10,13,17.30
2013,05,04,10,14,17.30
2013,05,04,10,15,17.40
2013,05,04,10,16,17.40
2013,05,04,10,17,17.50
2013,05,04,10,18,17.60
2013,05,04,10,19,17.70
2013,05,04,10,20,17.70
2013,05,04,10,21,17.80
2013,05,04,10,22,17.80
2013,05,04,10,23,17.90
2013,05,04,10,24,17.90
2013,05,04,10,25,18.00
2013,05,04,10,26,18.00
2013,05,04,10,27,18.10
2013,05,04,10,28,18.10
2013,05,04,10,29,18.10
2013,05,04,10,30,18.20
2013,05,04,10,31,18.20
2013,05,04,10,32,18.20
2013,05,04,10,33,18.30
2013,05,04,10,34,18.30
2013,05,04,10,35,18.40
2013,05,04,10,36,18.40
2013,05,04,10,37,18.40
2013,05,04,10,38,18.50
2013,05,04,10,39,18.50
2013,05,04,10,40,18.60
2013,05,04,10,41,18.60
2013,05,04,10,42,18.60
2013,05,04,10,43,18.60
2013,05,04,10,44,18.60
2013,05,04,10,45,18.70
2013,05,04,10,46,18.70
2013,05,04,10,47,18.70
2013,05,04,10,48,18.80
2013,05,04,10,49,18.90
2013,05,04,10,50,19.00
2013,05,04,10,51,19.00
2013,05,04,10,52,19.10
2013,05,04,10,53,19.20
2013,05,04,10,54,19.20
2013,05,04,10,55,19.30
2013,05,04,10,56,19.40
2013,05,04,10,57,19.40
2013,05,04,10,58,19.50
2013,05,04,10,59,19.50
2013,05,04,11,00,19.50
2013,05,04,11,01,19.50
2013,05,04,11,02,19.50
2013,05,04,11,03,19.50
2013,05,04,11,04,19.50
2013,05,04,11,05,19.40
2013,05,04,11,06,19.40
2013,05,04,11,07,19.40
2013,05,04,11,08,19.40
2013,05,04,11,09,19.50
2013,05,04,11,10,19.50
2013,05,04,11,11,19.50
2013,05,04,11,12,19.60
2013,05,04,11,13,19.60
2013,05,04,11,14,19.70
2013,05,04,11,15,19.70
2013,05,04,11,16,19.80
2013,05,04,11,17,19.80
2013,05,04,11,18,19.80
2013,05,04,11,19,19.90
2013,05,04,11,20,19.90
2013,05,04,11,21,19.90
2013,05,04,11,22,19.90
2013,05,04,11,23,20.00
2013,05,04,11,24,20.00
2013,05,04,11,25,19.90
2013,05,04,11,26,19.90
2013,05,04,11,27,19.90
2013,05,04,11,28,19.90
2013,05,04,11,29,20.00
2013,05,04,11,30,20.00
2013,05,04,11,31,20.00
2013,05,04,11,32,20.00
2013,05,04,11,33,20.00
2013,05,04,11,34,20.00
2013,05,04,11,35,20.00
2013,05,04,11,36,20.00
2013,05,04,11,37,20.00
2013,05,04,11,38,19.90
2013,05,04,11,39,20.00
2013,05,04,11,40,20.00
2013,05,04,11,41,20.10
2013,05,04,11,42,20.10
2013,05,04,11,43,20.10
2013,05,04,11,44,20.10
2013,05,04,11,45,20.10
2013,05,04,11,46,20.10
2013,05,04,11,47,20.10
2013,05,04,11,48,20.20
2013,05,04,11,49,20.20
2013,05,04,11,50,20.20
2013,05,04,11,51,20.30
2013,05,04,11,52,20.30
2013,05,04,11,53,20.40
2013,05,04,11,54,20.50
2013,05,04,11,55,20.50
2013,05,04,11,56,20.60
2013,05,04,11,57,20.60
2013,05,04,11,58,20.60
2013,05,04,11,59,20.70
2013,05,04,12,00,20.70
2013,05,04,12,01,20.70
2013,05,04,12,02,20.70
2013,05,04,12,03,20.70
2013,05,04,12,04,20.70
2013,05,04,12,05,20.70
2013,05,04,12,06,20.70
2013,05,04,12,07,20.70
2013,05,04,12,08,20.70
2013,05,04,12,09,20.60
2013,05,04,12,10,20.60
2013,05,04,12,11,20.60
2013,05,04,12,12,20.50
2013,05,04,12,13,20.50
2013,05,04,12,14,20.40
2013,05,04,12,15,20.40
2013,05,04,12,16,20.50
2013,05,04,12,17,20.40
2013,05,04,12,18,20.40
2013,05,04,12,19,20.40
2013,05,04,12,20,20.40
2013,05,04,12,21,20.30
2013,05,04,12,22,20.30
2013,05,04,12,23,20.20
2013,05,04,12,24,20.20
2013,05,04,12,25,20.10
2013,05,04,12,26,20.00
2013,05,04,12,27,20.00
2013,05,04,12,28,19.90
2013,05,04,12,29,19.90
2013,05,04,12,30,19.90
2013,05,04,12,31,19.90
2013,05,04,12,32,20.00
2013,05,04,12,33,20.10
2013,05,04,12,34,20.20
2013,05,04,12,35,20.30
2013,05,04,12,36,20.30
2013,05,04,12,37,20.40
2013,05,04,12,38,20.50
2013,05,04,12,39,20.60
2013,05,04,12,40,20.70
2013,05,04,12,41,20.70
2013,05,04,12,42,20.80
2013,05,04,12,43,20.90
2013,05,04,12,44,20.90
2013,05,04,12,45,21.00
2013,05,04,12,46,21.00
2013,05,04,12,47,21.10
2013,05,04,12,48,21.10
2013,05,04,12,49,21.20
2013,05,04,12,50,21.20
2013,05,04,12,51,21.20
2013,05,04,12,52,21.20
2013,05,04,12,53,21.20
2013,05,04,12,54,21.20
2013,05,04,12,55,21.20
2013,05,04,12,56,21.20
2013,05,04,12,57,21.20
2013,05,04,12,58,21.20
2013,05,04,12,59,21.20
2013,05,04,13,00,21.20
2013,05,04,13,01,21.20
2013,05,04,13,02,21.10
2013,05,04,13,03,21.10
2013,05,04,13,04,21.10
2013,05,04,13,05,21.10
2013,05,04,13,06,21.10
2013,05,04,13,07,21.20
2013,05,04,13,08,21.20
2013,05,04,13,09,21.20
2013,05,04,13,10,21.20
2013,05,04,13,11,21.20
2013,05,04,13,12,21.20
2013,05,04,13,13,21.20
2013,05,04,13,14,21.30
2013,05,04,13,15,21.30
2013,05,04,13,16,21.30
2013,05,04,13,17,21.30
2013,05,04,13,18,21.40
2013,05,04,13,19,21.40
2013,05,04,13,20,21.40
2013,05,04,13,21,21.40
2013,05,04,13,22,21.50
2013,05,04,13,23,21.50
2013,05,04,13,24,21.60
2013,05,04,13,25,21.60
2013,05,04,13,26,21.60
2013,05,04,13,27,21.70
2013,05,04,13,28,21.70
2013,05,04,13,29,21.80
2013,05,04,13,30,21.80
2013,05,04,13,31,21.90
2013,05,04,13,32,21.90
2013,05,04,13,33,22.00
2013,05,04,13,34,22.00
2013,05,04,13,35,22.10
2013,05,04,13,36,22.10
2013,05,04,13,37,22.00
2013,05,04,13,38,22.10
2013,05,04,13,39,22.10
2013,05,04,13,40,22.20
2013,05,04,13,41,22.20
2013,05,04,13,42,22.30
2013,05,04,13,43,22.30
2013,05,04,13,44,22.30
2013,05,04,13,45,22.40
2013,05,04,13,46,22.40
2013,05,04,13,47,22.50
2013,05,04,13,48,22.50
2013,05,04,13,49,22.60
2013,05,04,13,50,22.60
2013,05,04,13,51,22.70
2013,05,04,13,52,22.70
2013,05,04,13,53,22.70
2013,05,04,13,54,22.60
2013,05,04,13,55,22.60
2013,05,04,13,56,22.40
2013,05,04,13,57,22.30
2013,05,04,13,58,22.20
2013,05,04,13,59,22.20
2013,05,04,14,00,22.20
2013,05,04,14,01,22.20
2013,05,04,14,02,22.20
2013,05,04,14,03,22.20
2013,05,04,14,04,22.10
2013,05,04,14,05,22.10
2013,05,04,14,06,22.20
2013,05,04,14,07,22.20
2013,05,04,14,08,22.30
2013,05,04,14,09,22.40
2013,05,04,14,10,22.50
2013,05,04,14,11,22.60
2013,05,04,14,12,22.70
2013,05,04,14,13,22.70
2013,05,04,14,14,22.80
2013,05,04,14,15,22.90
2013,05,04,14,16,23.00
2013,05,04,14,17,23.00
2013,05,04,14,18,23.00
2013,05,04,14,19,23.00
2013,05,04,14,20,22.90
2013,05,04,14,21,22.90
2013,05,04,14,22,22.90
2013,05,04,14,23,22.90
2013,05,04,14,24,22.90
2013,05,04,14,25,22.90
2013,05,04,14,26,23.00
2013,05,04,14,27,23.00
2013,05,04,14,28,23.10
2013,05,04,14,29,23.10
2013,05,04,14,30,23.20
2013,05,04,14,31,23.20
2013,05,04,14,32,23.30
2013,05,04,14,33,23.40
2013,05,04,14,34,23.40
2013,05,04,14,35,23.40
2013,05,04,14,36,23.50
2013,05,04,14,37,23.50
2013,05,04,14,38,23.50
2013,05,04,14,39,23.60
2013,05,04,14,40,23.60
2013,05,04,14,41,23.60
2013,05,04,14,42,23.60
2013,05,04,14,43,23.60
2013,05,04,14,44,23.60
2013,05,04,14,45,23.60
2013,05,04,14,46,23.60
2013,05,04,14,47,23.60
2013,05,04,14,48,23.60
2013,05,04,14,49,23.70
2013,05,04,14,50,23.70
2013,05,04,14,51,23.70
2013,05,04,14,52,23.70
2013,05,04,14,53,23.80
2013,05,04,14,54,23.80
2013,05,04,14,55,23.90
2013,05,04,14,56,23.90
2013,05,04,14,57,24.00
2013,05,04,14,58,24.10
2013,05,04,14,59,24.20
2013,05,04,15,00,24.20
2013,05,04,15,01,24.30
2013,05,04,15,02,24.30
2013,05,04,15,03,24.40
2013,05,04,15,04,24.40
2013,05,04,15,05,24.50
2013,05,04,15,06,24.40
2013,05,04,15,07,24.40
2013,05,04,15,08,24.40
2013,05,04,15,09,24.30
2013,05,04,15,10,24.30
2013,05,04,15,11,24.30
2013,05,04,15,12,24.30
2013,05,04,15,13,24.40
2013,05,04,15,14,24.40
2013,05,04,15,15,24.40
2013,05,04,15,16,24.40
2013,05,04,15,17,24.40
2013,05,04,15,18,24.40
2013,05,04,15,19,24.50
2013,05,04,15,20,24.50
2013,05,04,15,21,24.60
2013,05,04,15,22,24.60
2013,05,04,15,23,24.60
2013,05,04,15,24,24.60
2013,05,04,15,25,24.60
2013,05,04,15,26,24.50
2013,05,04,15,27,24.40
2013,05,04,15,28,24.40
2013,05,04,15,29,24.40
2013,05,04,15,30,24.50
2013,05,04,15,31,24.50
2013,05,04,15,32,24.60
2013,05,04,15,33,24.60
2013,05,04,15,34,24.60
2013,05,04,15,35,24.50
2013,05,04,15,36,24.40
2013,05,04,15,37,24.40
2013,05,04,15,38,24.40
2013,05,04,15,39,24.30
2013,05,04,15,40,24.30
2013,05,04,15,41,24.20
2013,05,04,15,42,24.20
2013,05,04,15,43,24.20
2013,05,04,15,44,24.20
2013,05,04,15,45,24.30
2013,05,04,15,46,24.30
2013,05,04,15,47,24.40
2013,05,04,15,48,24.40
2013,05,04,15,49,24.40
2013,05,04,15,50,24.30
2013,05,04,15,51,24.30
2013,05,04,15,52,24.40
2013,05,04,15,53,24.40
2013,05,04,15,54,24.50
2013,05,04,15,55,24.50
2013,05,04,15,56,24.50
2013,05,04,15,57,24.50
2013,05,04,15,58,24.50
2013,05,04,15,59,24.50
2013,05,04,16,00,24.50
2013,05,04,16,01,24.60
2013,05,04,16,02,24.60
2013,05,04,16,03,24.60
2013,05,04,16,04,24.60
2013,05,04,16,05,24.60
2013,05,04,16,06,24.60
2013,05,04,16,07,24.70
2013,05,04,16,08,24.60
2013,05,04,16,09,24.60
2013,05,04,16,10,24.60
2013,05,04,16,11,24.60
2013,05,04,16,12,24.60
2013,05,04,16,13,24.60
2013,05,04,16,14,24.60
2013,05,04,16,15,24.60
2013,05,04,16,16,24.60
2013,05,04,16,17,24.60
2013,05,04,16,18,24.60
2013,05,04,16,19,24.60
2013,05,04,16,20,24.70
2013,05,04,16,21,24.70
2013,05,04,16,22,24.80
2013,05,04,16,23,24.90
2013,05,04,16,24,25.00
2013,05,04,16,25,25.00
2013,05,04,16,26,25.10
2013,05,04,16,27,25.10
2013,05,04,16,28,25.20
2013,05,04,16,29,25.20
2013,05,04,16,30,25.20
2013,05,04,16,31,25.10
2013,05,04,16,32,25.10
2013,05,04,16,33,25.00
2013,05,04,16,34,25.00
2013,05,04,16,35,25.00
2013,05,04,16,36,25.10
2013,05,04,16,37,25.10
2013,05,04,16,38,25.10
2013,05,04,16,39,25.10
2013,05,04,16,40,25.10
2013,05,04,16,41,25.10
2013,05,04,16,42,25.10
2013,05,04,16,43,25.10
2013,05,04,16,44,25.00
2013,05,04,16,45,25.00
2013,05,04,16,46,25.10
2013,05,04,16,47,25.10
2013,05,04,16,48,25.10
2013,05,04,16,49,25.10
2013,05,04,16,50,25.10
2013,05,04,16,51,25.10
2013,05,04,16,52,25.10
2013,05,04,16,53,25.10
2013,05,04,16,54,25.10
2013,05,04,16,55,25.10
2013,05,04,16,56,25.10
2013,05,04,16,57,25.10
2013,05,04,16,58,25.10
2013,05,04,16,59,25.10
2013,05,04,17,00,25.10
2013,05,04,17,01,25.10
2013,05,04,17,02,25.10
2013,05,04,17,03,25.10
2013,05,04,17,04,25.10
2013,05,04,17,05,25.10
2013,05,04,17,06,25.10
2013,05,04,17,07,25.10
2013,05,04,17,08,25.10
2013,05,04,17,09,25.10
2013,05,04,17,10,25.20
2013,05,04,17,11,25.20
2013,05,04,17,12,25.20
2013,05,04,17,13,25.20
2013,05,04,17,14,25.20
2013,05,04,17,15,25.20
2013,05,04,17,16,25.20
2013,05,04,17,17,25.20
2013,05,04,17,18,25.20
2013,05,04,17,19,25.30